Voltar ao catálogo

SL-6 R/B(2)

AtivoHEO
NORAD 17216·ROCKET BODY·🇷🇺 Russia

Lançado Dec 12, 1986 de Plesetsk Cosmodrome

Loading…

Próximas Passagens (próximas 24 horas)

TLE

AtualizadoSource: Space-Track

Época: Sep 13, 2026, 15:44 UTC

1 17216U 86098D   26256.65610084 -.00000469  00000-0  00000-0 0  9999
2 17216  70.1578  85.4860 5532148  15.8916 142.0104  2.04013768296219

Acompanhe SL-6 R/B(2) em tempo real com AllMySat

Download on the App Store